Погода в Миянвали

Пакистан     32°35′13″N   71°32′34″E
темп.,
°C
ветер,
м/с
пор.,
м/с
влажн.,
%
обл.,
%
осадки,
мм/ч
давл.,
гПа
погр.,
м
15 мая, сб
сб1523:00+30юз473583 0.1 1003264
02:00+29ююв453891 0.1 1002369
05:00+26вюв114611 0.4 100316
08:00+29ююз014162 2.3 1006383
11:00+33вюв13280 2.4 10051933
14:00+37вюв33220 0.0 10033190
17:00+37в1421100 0.0 10012837
20:00+29с674157 1.6 1005557
16 мая, вс
вс1623:00+27ссв484295 2.0 1007320
02:00+26сз454581 0.2 1007232
05:00+24с46545 0.3 1008237
08:00+28с56395 0.1 1010553
11:00+33ссв33265 0.1 10091636
14:00+35ссв21220 0.0 10062260
17:00+36з3320100 0.0 10042549
20:00+33з5627100 0.0 1005429
17 мая, пн
пн1723:00+30св333194 0.0 1007100
02:00+29св33305 0.0 100635
05:00+27св712410 0.0 1006365
08:00+30ссв58340 0.0 1009634
11:00+35ссв55230 0.0 10081258
14:00+38ссв33180 0.0 10052060
17:00+38ссз22153 0.0 10022140
20:00+36св222081 0.0 100316
18 мая, вт
вт1823:00+33з00250 0.0 100312
02:00+32всв33250 0.0 100222
05:00+30ссв33270 0.0 100338
08:00+34всв44220 0.0 1005454
11:00+38в11160 0.0 10042010
14:00+40з14110 0.0 10013465
17:00+41зсз24100 0.0 9994010
20:00+38в22120 0.0 100013
19 мая, ср
ср1923:00+35ю23150 0.0 100130
02:00+33юв452999 0.0 100182
05:00+31всв333482 0.0 100138
08:00+34св7823100 0.0 1003546
11:00+39св6616100 0.0 10021712
14:00+41св3415100 0.0 9993532
17:00+40ю2316100 0.3 9983209
20:00+35юв91322100 0.1 1000472